Knoxville, TN

1:06 AM EST on November 18, 2019 (GMT -0500)
McGhee Tyson

Weather History for KTYS - July, 2019

Change the Weather History Date:

Tuesday, July 23, 2019

  Actual Average Record
Temperature  
Mean Temperature 72 °F 79 °F  
Max Temperature 79 °F 88 °F 101 °F (1952)
Min Temperature 64 °F 69 °F 53 °F (1947)
Degree Days  
Heating Degree Days 0 0  
Month to date heating degree days 0 0  
Since 1 June heating degree days 0 4  
Since 1 July heating degree days 0 0  
Cooling Degree Days 7 14  
Month to date cooling degree days 356 312  
Year to date cooling degree days 935 779  
Since 1 June cooling degree days 635 617  
Growing Degree Days 22 (Base 50)    
Moisture  
Dew Point 65 °F    
Average Humidity 77    
Maximum Humidity 100    
Minimum Humidity 54    
Precipitation  
Precipitation 0.91 in 0.17 in 1.10 in (1874)
Month to date precipitation 5.88 3.87  
Year to date precipitation 45.10 29.12  
Snow  
Snow 0.00 in 0.00 in - ()
Month to date snowfall 0.0 0.0  
Since 1 June snowfall 0.0 0.0  
Since 1 July snowfall 0.0 0.0  
Snow Depth 0.00 in    
Sea Level Pressure  
Sea Level Pressure 29.92 in    
Wind  
Wind Speed 7 mph (NNE)    
Max Wind Speed 17 mph    
Max Gust Speed 22 mph    
Visibility 7 miles    
Events Rain    
T = Trace of Precipitation, MM = Missing Value Source: NWS Daily Summary

Daily Weather History Graph

Daily Weather History Graph

Search for Another Location

Airport or City:

Astronomy

Jul. 23, 2019 Rise Set
Actual Time 6:36 AM EDT 8:47 PM EDT
Civil Twilight 6:07 AM EDT 9:16 PM EDT
Nautical Twilight 5:32 AM EDT 9:51 PM EDT
Astronomical Twilight 4:54 AM EDT 10:29 PM EDT
Moon 12:18 AM EDT (7/23) 12:38 PM EDT (7/23)
Length of Visible Light 15h 08m
Length of Day
14h 11m
Waning Gibbous, 63% of the Moon is Illuminated
Jul 23
Waning Gibbous
Jul 24
Last Quarter
Jul 31
New
Aug 7
First Quarter
Aug 15
Full

Hourly Weather History & Observations

Time (EDT) Temp. Dew Point Humidity Pressure Visibility Wind Dir Wind Speed Gust Speed Precip Events Conditions
12:53 AM 70.0 °F 69.1 °F 97% 29.90 in 10.0 mi Calm Calm - 0.04 in Rain Light Rain
1:53 AM 70.0 °F 69.1 °F 97% 29.88 in 10.0 mi NNW 4.6 mph - 0.02 in Rain Light Rain
2:31 AM 71.1 °F 69.1 °F 93% 29.90 in 10.0 mi Calm Calm - 0.00 in Rain Light Rain
2:53 AM 71.1 °F 69.1 °F 93% 29.87 in 10.0 mi NW 3.5 mph - 0.00 in   Overcast
3:12 AM 71.1 °F 69.1 °F 93% 29.90 in 10.0 mi North 3.5 mph - N/A   Overcast
3:53 AM 71.1 °F 69.1 °F 93% 29.87 in 9.0 mi North 3.5 mph - 0.00 in Rain Light Rain
4:07 AM 71.1 °F 69.1 °F 93% 29.89 in 8.0 mi North 4.6 mph - 0.01 in Rain Light Rain
4:34 AM 70.0 °F 68.0 °F 93% 29.89 in 10.0 mi NNE 4.6 mph - 0.02 in Rain Light Rain
4:53 AM 70.0 °F 68.0 °F 93% 29.86 in 6.0 mi NNE 4.6 mph - 0.03 in Rain Light Rain
5:26 AM 70.0 °F 68.0 °F 93% 29.89 in 2.0 mi North 3.5 mph - 0.07 in Rain Heavy Rain
5:33 AM 70.0 °F 68.0 °F 93% 29.89 in 3.0 mi NNE 9.2 mph - 0.09 in Rain Heavy Rain
5:53 AM 69.1 °F 66.9 °F 93% 29.87 in 4.0 mi NE 6.9 mph - 0.12 in Rain Rain
5:57 AM 69.1 °F 66.9 °F 93% 29.89 in 3.0 mi NE 8.1 mph - 0.00 in Rain Rain
6:09 AM 69.1 °F 66.9 °F 93% 29.89 in 2.5 mi NE 9.2 mph - 0.07 in Rain Heavy Rain
6:13 AM 69.1 °F 66.9 °F 93% 29.89 in 3.0 mi NE 9.2 mph - 0.09 in Rain Heavy Rain
6:30 AM 69.1 °F 66.9 °F 93% 29.89 in 4.0 mi NNE 8.1 mph - 0.11 in Rain Rain
6:43 AM 69.1 °F 66.9 °F 93% 29.90 in 4.0 mi NNE 6.9 mph - 0.14 in Rain Light Rain
6:51 AM 69.8 °F 66.2 °F 88% 29.90 in 4.0 mi ENE 5.8 mph - 0.15 in Rain Rain
6:53 AM 69.1 °F 66.9 °F 93% 29.88 in 4.0 mi ENE 5.8 mph - 0.15 in Rain Rain
6:59 AM 69.1 °F 66.9 °F 93% 29.90 in 2.0 mi ENE 6.9 mph - 0.01 in Rain Light Rain
7:38 AM 69.1 °F 66.9 °F 93% 29.91 in 2.0 mi Calm Calm - 0.06 in Rain Rain
7:41 AM 69.1 °F 66.9 °F 93% 29.91 in 2.0 mi ENE 3.5 mph - 0.06 in Rain Rain
7:48 AM 69.8 °F 66.2 °F 88% 29.91 in 2.0 mi NE 4.6 mph - 0.08 in Rain Rain
7:53 AM 69.1 °F 66.9 °F 93% 29.89 in 2.5 mi North 5.8 mph - 0.09 in Rain Rain
7:58 AM 69.1 °F 66.9 °F 93% 29.91 in 1.5 mi North 11.5 mph 18.4 mph 0.01 in Rain Rain
8:16 AM 66.9 °F 64.9 °F 93% 29.92 in 1.5 mi North 16.1 mph - 0.12 in Rain Rain
8:53 AM 66.9 °F 64.9 °F 93% 29.92 in 1.5 mi North 9.2 mph - 0.35 in Rain Heavy Rain
9:03 AM 66.9 °F 64.0 °F 90% 29.95 in 1.5 mi North 11.5 mph - 0.04 in Rain Heavy Rain
9:53 AM 66.9 °F 64.0 °F 90% 29.94 in 1.5 mi North 10.4 mph - 0.13 in Rain Light Rain
10:03 AM 66.9 °F 64.9 °F 93% 29.96 in 5.0 mi NNE 11.5 mph - 0.01 in Rain Light Rain
10:31 AM 66.9 °F 64.9 °F 93% 29.97 in 7.0 mi North 8.1 mph - 0.01 in Rain Light Rain
10:53 AM 66.9 °F 64.9 °F 93% 29.95 in 7.0 mi North 9.2 mph - 0.01 in Rain Light Rain
11:09 AM 66.9 °F 64.9 °F 93% 29.97 in 3.0 mi NNE 10.4 mph - 0.01 in Rain Light Rain
11:31 AM 69.1 °F 66.0 °F 90% 29.97 in 7.0 mi NNE 11.5 mph - 0.01 in   Overcast
11:53 AM 68.0 °F 64.9 °F 90% 29.96 in 10.0 mi NNE 9.2 mph - 0.01 in   Overcast
12:00 PM 69.1 °F 64.0 °F 84% 29.98 in 10.0 mi NNE 10.4 mph - N/A   Overcast
12:53 PM 69.1 °F 64.9 °F 87% 29.95 in 10.0 mi North 5.8 mph - 0.00 in   Overcast
1:18 PM 70.0 °F 64.9 °F 84% 29.97 in 10.0 mi NNE 9.2 mph - N/A   Overcast
1:53 PM 73.0 °F 64.9 °F 76% 29.94 in 10.0 mi NNE 10.4 mph - N/A   Overcast
2:53 PM 73.9 °F 64.0 °F 71% 29.94 in 10.0 mi ENE 5.8 mph - N/A   Overcast
3:53 PM 75.0 °F 64.0 °F 69% 29.94 in 10.0 mi East 8.1 mph - N/A   Mostly Cloudy
4:53 PM 75.9 °F 64.0 °F 67% 29.93 in 10.0 mi East 8.1 mph - N/A   Scattered Clouds
5:53 PM 75.9 °F 62.1 °F 62% 29.93 in 10.0 mi NE 6.9 mph - N/A   Scattered Clouds
6:53 PM 78.1 °F 60.1 °F 54% 29.92 in 10.0 mi North 9.2 mph - N/A   Partly Cloudy
7:53 PM 75.9 °F 60.1 °F 58% 29.94 in 10.0 mi North 9.2 mph - N/A   Partly Cloudy
8:53 PM 73.0 °F 57.9 °F 59% 29.97 in 10.0 mi North 8.1 mph - N/A   Scattered Clouds
9:53 PM 70.0 °F 57.0 °F 63% 29.99 in 10.0 mi North 8.1 mph - N/A   Partly Cloudy
10:53 PM 68.0 °F 57.0 °F 68% 30.01 in 10.0 mi North 8.1 mph - N/A   Partly Cloudy
11:53 PM 66.9 °F 57.0 °F 70% 30.01 in 10.0 mi North 8.1 mph - N/A   Partly Cloudy